Date,TemperatureHighF,TemperatureAvgF,TemperatureLowF,DewpointHighF,DewpointAvgF,DewpointLowF,HumidityHigh,HumidityAvg,HumidityLow,PressureMaxIn,PressureMinIn,WindSpeedMaxMPH,WindSpeedAvgMPH,GustSpeedMaxMPH,PrecipitationSumIn
2013-5-1,85.8,71.6,63.9,82.8,71.2,63.6,99,98,87,29.90,29.80,16,2,16,0.35
2013-5-2,79.7,70.3,64.9,79.5,70.0,64.7,99,99,94,29.86,29.71,6,1,8,0.51
2013-5-3,89.8,75.9,63.1,81.0,71.7,62.9,99,88,64,29.75,29.60,11,2,12,0.00
2013-5-4,86.4,74.5,62.6,78.7,71.2,62.3,99,90,70,29.73,29.61,15,4,19,0.00
2013-5-5,85.3,74.3,57.7,71.2,66.3,57.5,99,78,50,29.88,29.70,14,3,14,0.00
2013-5-6,84.9,69.4,52.9,74.6,64.2,52.6,99,85,65,29.93,29.85,8,2,11,0.00
2013-5-7,84.6,71.4,54.9,72.5,64.8,54.6,99,82,61,29.99,29.90,12,2,17,0.00
2013-5-8,88.3,71.3,53.1,76.3,63.3,52.8,99,79,50,30.05,29.96,8,2,16,0.00
2013-5-9,95.2,73.1,51.4,75.2,64.7,51.2,99,79,47,30.05,29.96,8,2,10,0.00
2013-5-10,96.8,79.9,60.6,81.7,72.7,60.4,99,81,56,30.03,29.90,11,2,13,0.00
2013-5-11,96.1,80.4,64.9,84.8,75.5,64.7,99,87,61,29.97,29.89,10,2,14,0.00
2013-5-12,92.7,79.8,68.4,86.6,77.0,68.1,99,92,73,29.95,29.83,9,2,14,0.01
2013-5-13,92.1,79.2,65.3,80.3,73.6,64.0,99,84,63,30.01,29.91,7,2,11,0.00
2013-5-14,91.2,76.6,63.0,70.9,63.6,58.0,98,67,44,30.09,29.99,14,4,15,0.00
2013-5-15,90.9,73.3,54.0,71.1,64.2,53.7,99,76,49,30.10,29.97,11,3,11,0.00
2013-5-16,93.6,77.5,59.2,73.7,68.0,58.9,99,76,48,30.01,29.90,10,2,10,0.00
2013-5-17,95.9,79.5,61.0,78.7,69.9,60.7,99,76,48,29.99,29.92,7,2,11,0.00
2013-5-18,97.3,79.2,61.3,83.2,73.8,61.1,99,85,57,30.01,29.91,9,2,11,0.00
2013-5-19,95.9,78.9,65.8,81.9,74.2,65.6,99,87,58,30.00,29.86,8,2,16,0.26
2013-5-20,95.7,76.7,68.4,86.2,74.0,68.1,99,93,58,29.96,29.87,14,2,20,0.83
2013-5-21,94.6,77.0,67.8,84.1,74.7,67.6,99,93,66,29.91,29.80,8,2,13,0.33
2013-5-22,94.8,79.8,66.2,85.2,75.2,65.9,99,87,65,29.85,29.78,8,2,11,0.00
2013-5-23,94.3,80.4,65.5,85.4,75.2,65.2,99,86,64,29.92,29.82,8,2,11,0.00
2013-5-24,98.2,81.8,67.8,83.4,75.4,67.6,99,83,50,29.98,29.87,9,2,14,0.00
2013-5-25,94.1,80.1,64.4,82.3,73.2,64.1,99,82,57,30.06,29.94,11,4,13,0.00
2013-5-26,93.0,79.3,66.0,76.1,71.6,65.8,99,79,52,30.08,29.98,10,4,13,0.00
2013-5-27,91.2,77.8,64.0,80.6,73.7,63.8,99,88,71,30.06,29.92,14,4,15,0.00
2013-5-28,90.1,77.9,72.5,83.8,76.5,72.2,99,96,74,30.00,29.92,12,3,14,0.14
2013-5-29,85.8,75.7,71.2,82.8,75.2,71.0,99,98,88,29.99,29.90,13,4,15,0.40
2013-5-30,90.1,78.1,70.5,87.1,76.8,70.3,99,96,79,29.95,29.85,13,4,16,0.11
2013-5-31,93.7,78.5,71.6,85.9,77.2,71.3,99,96,77,29.94,29.89,11,2,11,0.74